Time,TemperatureF,DewpointF,PressureIn,WindDirection,WindDirectionDegrees,WindSpeedMPH,WindSpeedGustMPH,Humidity,HourlyPrecipIn,Conditions,Clouds,dailyrainin,SoftwareType,DateUTC
2013-01-22 00:02:00,38.0,13.0,30.25,WNW,293,0.0,0.0,35,0.00,,,0.00,,2013-01-22 07:02:00,
2013-01-22 00:12:00,38.0,13.0,30.25,WNW,293,0.0,0.0,35,0.00,,,0.00,,2013-01-22 07:12:00,
2013-01-22 00:22:00,37.0,13.0,30.25,WNW,293,0.0,0.0,36,0.00,,,0.00,,2013-01-22 07:22:00,
2013-01-22 00:32:00,36.0,12.0,30.25,WNW,293,0.0,0.0,37,0.00,,,0.00,,2013-01-22 07:32:00,
2013-01-22 00:42:00,36.0,12.0,30.25,WNW,293,0.0,0.0,37,0.00,,,0.00,,2013-01-22 07:42:00,
2013-01-22 00:52:00,36.0,12.0,30.25,WNW,294,0.0,3.0,36,0.00,,,0.00,,2013-01-22 07:52:00,
2013-01-22 01:02:00,37.0,12.0,30.25,WNW,294,0.0,3.0,35,0.00,,,0.00,,2013-01-22 08:02:00,
2013-01-22 01:12:00,37.0,12.0,30.25,WNW,294,0.0,3.0,35,0.00,,,0.00,,2013-01-22 08:12:00,
2013-01-22 01:22:00,37.0,11.0,30.25,North,8,0.0,5.0,34,0.00,,,0.00,,2013-01-22 08:22:00,
2013-01-22 01:32:00,37.0,12.0,30.26,North,10,0.0,2.0,35,0.00,,,0.00,,2013-01-22 08:32:00,
2013-01-22 01:42:00,37.0,12.0,30.26,North,10,0.0,2.0,35,0.00,,,0.00,,2013-01-22 08:42:00,
2013-01-22 01:52:00,36.0,12.0,30.26,North,10,0.0,0.0,36,0.00,,,0.00,,2013-01-22 08:52:00,
2013-01-22 02:02:00,36.0,12.0,30.26,North,11,0.0,2.0,37,0.00,,,0.00,,2013-01-22 09:02:00,
2013-01-22 02:12:00,36.0,12.0,30.26,North,11,0.0,2.0,37,0.00,,,0.00,,2013-01-22 09:12:00,
2013-01-22 02:22:00,36.0,12.0,30.26,NNE,15,0.0,1.0,36,0.00,,,0.00,,2013-01-22 09:22:00,
2013-01-22 02:32:00,36.0,12.0,30.26,NNE,15,0.0,1.0,36,0.00,,,0.00,,2013-01-22 09:32:00,
2013-01-22 02:42:00,36.0,12.0,30.26,NNE,15,0.0,1.0,36,0.00,,,0.00,,2013-01-22 09:42:00,
2013-01-22 02:52:00,36.0,12.0,30.27,NNE,15,0.0,1.0,36,0.00,,,0.00,,2013-01-22 09:52:00,
2013-01-22 03:02:00,35.0,11.0,30.27,NNE,18,0.0,4.0,36,0.00,,,0.00,,2013-01-22 10:02:00,
2013-01-22 03:12:00,35.0,11.0,30.27,NNE,18,0.0,4.0,36,0.00,,,0.00,,2013-01-22 10:12:00,
2013-01-22 03:22:00,34.0,11.0,30.27,NNE,18,0.0,2.0,38,0.00,,,0.00,,2013-01-22 10:22:00,
2013-01-22 03:32:00,34.0,11.0,30.27,NNE,18,0.0,2.0,38,0.00,,,0.00,,2013-01-22 10:32:00,
2013-01-22 03:42:00,34.0,11.0,30.27,NNE,18,0.0,2.0,38,0.00,,,0.00,,2013-01-22 10:42:00,
2013-01-22 03:52:00,34.0,11.0,30.27,NNE,20,0.0,1.0,38,0.00,,,0.00,,2013-01-22 10:52:00,
2013-01-22 04:02:00,34.0,11.0,30.27,NNE,20,0.0,2.0,38,0.00,,,0.00,,2013-01-22 11:02:00,
2013-01-22 04:12:00,34.0,11.0,30.27,NNE,20,0.0,2.0,38,0.00,,,0.00,,2013-01-22 11:12:00,
2013-01-22 04:22:00,34.0,12.0,30.27,NNE,20,0.0,0.0,39,0.00,,,0.00,,2013-01-22 11:22:00,
2013-01-22 04:33:00,32.0,11.0,30.27,NNE,20,0.0,2.0,41,0.00,,,0.00,,2013-01-22 11:33:00,
2013-01-22 04:43:00,32.0,11.0,30.27,NNE,20,0.0,2.0,41,0.00,,,0.00,,2013-01-22 11:43:00,
2013-01-22 04:53:00,32.0,10.0,30.28,NNE,20,0.0,2.0,40,0.00,,,0.00,,2013-01-22 11:53:00,
2013-01-22 05:03:00,32.0,10.0,30.28,NNE,20,0.0,1.0,39,0.00,,,0.00,,2013-01-22 12:03:00,
2013-01-22 05:12:00,32.0,10.0,30.28,NNE,20,0.0,1.0,39,0.00,,,0.00,,2013-01-22 12:12:00,
2013-01-22 05:23:00,32.0,10.0,30.29,NNE,26,0.0,4.0,39,0.00,,,0.00,,2013-01-22 12:23:00,
2013-01-22 05:33:00,32.0,10.0,30.29,NNE,26,0.0,4.0,39,0.00,,,0.00,,2013-01-22 12:33:00,
2013-01-22 05:43:00,33.0,11.0,30.29,NE,34,0.0,4.0,39,0.00,,,0.00,,2013-01-22 12:43:00,
2013-01-22 05:52:00,33.0,11.0,30.29,NE,34,0.0,1.0,40,0.00,,,0.00,,2013-01-22 12:52:00,
2013-01-22 06:04:00,33.0,11.0,30.29,NE,35,0.0,5.0,40,0.00,,,0.00,,2013-01-22 13:04:00,
2013-01-22 06:13:00,33.0,11.0,30.29,NE,35,0.0,5.0,40,0.00,,,0.00,,2013-01-22 13:13:00,
2013-01-22 06:23:00,33.0,11.0,30.30,NE,35,0.0,2.0,40,0.00,,,0.00,,2013-01-22 13:23:00,
2013-01-22 06:33:00,32.0,10.0,30.30,NE,35,0.0,0.0,40,0.00,,,0.00,,2013-01-22 13:33:00,
2013-01-22 06:43:00,32.0,10.0,30.30,NE,35,0.0,0.0,40,0.00,,,0.00,,2013-01-22 13:43:00,
2013-01-22 06:53:00,31.0,11.0,30.30,NE,35,0.0,0.0,42,0.00,,,0.00,,2013-01-22 13:53:00,
2013-01-22 07:03:00,31.0,11.0,30.30,NE,35,0.0,0.0,42,0.00,,,0.00,,2013-01-22 14:03:00,
2013-01-22 07:13:00,31.0,11.0,30.30,NE,35,0.0,0.0,42,0.00,,,0.00,,2013-01-22 14:13:00,
2013-01-22 07:23:00,31.0,10.0,30.31,NE,35,0.0,0.0,41,0.00,,,0.00,,2013-01-22 14:23:00,
2013-01-22 07:34:00,31.0,11.0,30.31,NE,35,0.0,2.0,42,0.00,,,0.00,,2013-01-22 14:34:00,
2013-01-22 07:43:00,31.0,11.0,30.31,NE,35,0.0,2.0,42,0.00,,,0.00,,2013-01-22 14:43:00,
2013-01-22 07:53:00,31.0,11.0,30.32,NE,35,0.0,3.0,42,0.00,,,0.00,,2013-01-22 14:53:00,
2013-01-22 08:03:00,32.0,11.0,30.32,NE,35,0.0,2.0,41,0.00,,,0.00,,2013-01-22 15:03:00,
2013-01-22 08:13:00,32.0,11.0,30.32,NE,35,0.0,2.0,41,0.00,,,0.00,,2013-01-22 15:13:00,
2013-01-22 08:23:00,34.0,12.0,30.33,NE,35,0.0,4.0,39,0.00,,,0.00,,2013-01-22 15:23:00,
2013-01-22 08:34:00,35.0,12.0,30.33,NE,35,0.0,2.0,38,0.00,,,0.00,,2013-01-22 15:34:00,
2013-01-22 08:43:00,35.0,12.0,30.33,NE,35,0.0,2.0,38,0.00,,,0.00,,2013-01-22 15:43:00,
2013-01-22 08:52:00,37.0,13.0,30.33,NE,35,0.0,4.0,37,0.00,,,0.00,,2013-01-22 15:52:00,
2013-01-22 09:03:00,38.0,13.0,30.34,NE,36,0.0,4.0,36,0.00,,,0.00,,2013-01-22 16:03:00,
2013-01-22 09:13:00,38.0,13.0,30.34,NE,36,0.0,4.0,36,0.00,,,0.00,,2013-01-22 16:13:00,
2013-01-22 09:23:00,40.0,15.0,30.34,NE,36,0.0,3.0,35,0.00,,,0.00,,2013-01-22 16:23:00,
2013-01-22 09:33:00,42.0,16.0,30.34,NE,34,1.0,6.0,34,0.00,,,0.00,,2013-01-22 16:33:00,
2013-01-22 09:43:00,42.0,16.0,30.34,NE,34,1.0,6.0,34,0.00,,,0.00,,2013-01-22 16:43:00,
2013-01-22 09:53:00,44.0,17.0,30.34,NNE,28,1.0,6.0,33,0.00,,,0.00,,2013-01-22 16:53:00,
2013-01-22 10:03:00,45.0,18.0,30.34,NNW,338,4.0,10.0,33,0.00,,,0.00,,2013-01-22 17:03:00,
2013-01-22 10:13:00,45.0,18.0,30.34,NNW,338,4.0,10.0,33,0.00,,,0.00,,2013-01-22 17:13:00,
2013-01-22 10:23:00,46.0,17.0,30.34,NNW,340,2.0,10.0,31,0.00,,,0.00,,2013-01-22 17:23:00,
2013-01-22 10:34:00,46.0,17.0,30.34,NNW,340,2.0,10.0,31,0.00,,,0.00,,2013-01-22 17:34:00,
2013-01-22 10:43:00,46.0,17.0,30.34,NNW,340,2.0,10.0,31,0.00,,,0.00,,2013-01-22 17:43:00,
2013-01-22 10:53:00,49.0,18.0,30.34,North,354,5.0,10.0,29,0.00,,,0.00,,2013-01-22 17:53:00,
2013-01-22 11:03:00,51.0,18.0,30.33,North,349,3.0,10.0,27,0.00,,,0.00,,2013-01-22 18:03:00,
2013-01-22 11:13:00,51.0,18.0,30.33,North,349,3.0,10.0,27,0.00,,,0.00,,2013-01-22 18:13:00,
2013-01-22 11:23:00,53.0,19.0,30.33,North,2,1.0,9.0,26,0.00,,,0.00,,2013-01-22 18:23:00,
2013-01-22 11:33:00,55.0,20.0,30.32,NNW,328,3.0,6.0,25,0.00,,,0.00,,2013-01-22 18:33:00,
2013-01-22 11:43:00,55.0,20.0,30.32,NNW,328,3.0,6.0,25,0.00,,,0.00,,2013-01-22 18:43:00,
2013-01-22 11:53:00,56.0,20.0,30.31,NW,323,1.0,7.0,24,0.00,,,0.00,,2013-01-22 18:53:00,
2013-01-22 12:03:00,58.0,20.0,30.30,NW,326,2.0,9.0,23,0.00,,,0.00,,2013-01-22 19:03:00,
2013-01-22 12:13:00,58.0,20.0,30.30,NW,326,2.0,9.0,23,0.00,,,0.00,,2013-01-22 19:13:00,
2013-01-22 12:23:00,59.0,20.0,30.29,NNW,340,2.0,6.0,22,0.00,,,0.00,,2013-01-22 19:23:00,
2013-01-22 12:33:00,60.0,20.0,30.27,NW,314,3.0,9.0,21,0.00,,,0.00,,2013-01-22 19:33:00,
2013-01-22 12:43:00,60.0,20.0,30.27,NW,314,3.0,9.0,21,0.00,,,0.00,,2013-01-22 19:43:00,
2013-01-22 12:53:00,61.0,20.0,30.26,NNW,343,2.0,8.0,20,0.00,,,0.00,,2013-01-22 19:53:00,
2013-01-22 13:03:00,62.0,20.0,30.25,North,357,2.0,7.0,20,0.00,,,0.00,,2013-01-22 20:03:00,
2013-01-22 13:13:00,62.0,20.0,30.25,North,357,2.0,7.0,20,0.00,,,0.00,,2013-01-22 20:13:00,
2013-01-22 13:23:00,63.0,20.0,30.24,NW,308,4.0,8.0,19,0.00,,,0.00,,2013-01-22 20:23:00,
2013-01-22 13:33:00,64.0,20.0,30.24,NNW,329,3.0,7.0,18,0.00,,,0.00,,2013-01-22 20:33:00,
2013-01-22 13:43:00,64.0,20.0,30.24,NNW,329,3.0,7.0,18,0.00,,,0.00,,2013-01-22 20:43:00,
2013-01-22 13:53:00,65.0,19.0,30.23,North,357,0.0,6.0,17,0.00,,,0.00,,2013-01-22 20:53:00,
2013-01-22 14:03:00,65.0,20.0,30.22,North,359,1.0,4.0,18,0.00,,,0.00,,2013-01-22 21:03:00,
2013-01-22 14:13:00,65.0,20.0,30.22,North,359,1.0,4.0,18,0.00,,,0.00,,2013-01-22 21:13:00,
2013-01-22 14:23:00,66.0,20.0,30.22,NNW,342,0.0,6.0,17,0.00,,,0.00,,2013-01-22 21:23:00,
2013-01-22 14:33:00,66.0,20.0,30.22,NNW,334,0.0,4.0,17,0.00,,,0.00,,2013-01-22 21:33:00,
2013-01-22 14:43:00,66.0,20.0,30.22,NNW,334,0.0,4.0,17,0.00,,,0.00,,2013-01-22 21:43:00,
2013-01-22 14:53:00,66.0,20.0,30.22,NNW,348,1.0,5.0,17,0.00,,,0.00,,2013-01-22 21:53:00,
2013-01-22 15:03:00,67.0,21.0,30.21,NW,308,2.0,5.0,17,0.00,,,0.00,,2013-01-22 22:03:00,
2013-01-22 15:13:00,67.0,21.0,30.21,NW,308,2.0,5.0,17,0.00,,,0.00,,2013-01-22 22:13:00,
2013-01-22 15:22:00,67.0,21.0,30.21,WNW,282,1.0,6.0,17,0.00,,,0.00,,2013-01-22 22:22:00,
2013-01-22 15:32:00,67.0,21.0,30.21,WNW,282,1.0,6.0,17,0.00,,,0.00,,2013-01-22 22:32:00,
2013-01-22 15:43:00,68.0,20.0,30.21,WNW,295,1.0,7.0,16,0.00,,,0.00,,2013-01-22 22:43:00,
2013-01-22 15:53:00,68.0,19.0,30.20,NW,304,0.0,4.0,15,0.00,,,0.00,,2013-01-22 22:53:00,
2013-01-22 16:03:00,68.0,19.0,30.20,NW,307,0.0,5.0,15,0.00,,,0.00,,2013-01-22 23:03:00,
2013-01-22 16:12:00,68.0,19.0,30.20,NW,307,0.0,5.0,15,0.00,,,0.00,,2013-01-22 23:12:00,
2013-01-22 16:23:00,68.0,19.0,30.19,WNW,288,0.0,4.0,15,0.00,,,0.00,,2013-01-22 23:23:00,
2013-01-22 16:33:00,68.0,19.0,30.19,WNW,288,0.0,3.0,15,0.00,,,0.00,,2013-01-22 23:33:00,
2013-01-22 16:43:00,68.0,19.0,30.19,WNW,288,0.0,3.0,15,0.00,,,0.00,,2013-01-22 23:43:00,
2013-01-22 16:52:00,68.0,19.0,30.19,WNW,288,0.0,4.0,15,0.00,,,0.00,,2013-01-22 23:52:00,
2013-01-22 17:03:00,68.0,20.0,30.19,WNW,288,0.0,0.0,16,0.00,,,0.00,,2013-01-23 00:03:00,
2013-01-22 17:12:00,68.0,20.0,30.19,WNW,288,0.0,0.0,16,0.00,,,0.00,,2013-01-23 00:12:00,
2013-01-22 17:22:00,67.0,19.0,30.19,WNW,288,0.0,0.0,16,0.00,,,0.00,,2013-01-23 00:22:00,
2013-01-22 17:33:00,67.0,19.0,30.19,WNW,288,0.0,0.0,16,0.00,,,0.00,,2013-01-23 00:33:00,
2013-01-22 17:43:00,67.0,19.0,30.19,WNW,288,0.0,0.0,16,0.00,,,0.00,,2013-01-23 00:43:00,
2013-01-22 17:52:00,66.0,19.0,30.19,WNW,287,0.0,0.0,16,0.00,,,0.00,,2013-01-23 00:52:00,
2013-01-22 18:03:00,63.0,18.0,30.20,WNW,287,0.0,0.0,17,0.00,,,0.00,,2013-01-23 01:03:00,
2013-01-22 18:13:00,63.0,18.0,30.20,WNW,287,0.0,0.0,17,0.00,,,0.00,,2013-01-23 01:13:00,
2013-01-22 18:23:00,59.0,19.0,30.20,WNW,287,0.0,0.0,21,0.00,,,0.00,,2013-01-23 01:23:00,
2013-01-22 18:33:00,57.0,19.0,30.20,WNW,288,0.0,0.0,22,0.00,,,0.00,,2013-01-23 01:33:00,
2013-01-22 18:43:00,57.0,19.0,30.20,WNW,288,0.0,0.0,22,0.00,,,0.00,,2013-01-23 01:43:00,
2013-01-22 18:52:00,54.0,16.0,30.21,WNW,287,0.0,0.0,22,0.00,,,0.00,,2013-01-23 01:52:00,
2013-01-22 19:03:00,54.0,15.0,30.21,WNW,288,0.0,1.0,21,0.00,,,0.00,,2013-01-23 02:03:00,
2013-01-22 19:12:00,54.0,15.0,30.21,WNW,288,0.0,1.0,21,0.00,,,0.00,,2013-01-23 02:12:00,
2013-01-22 19:23:00,53.0,14.0,30.21,WNW,288,0.0,1.0,21,0.00,,,0.00,,2013-01-23 02:23:00,
2013-01-22 19:33:00,51.0,16.0,30.22,WNW,288,0.0,1.0,24,0.00,,,0.00,,2013-01-23 02:33:00,
2013-01-22 19:43:00,51.0,16.0,30.22,WNW,288,0.0,1.0,24,0.00,,,0.00,,2013-01-23 02:43:00,
2013-01-22 19:53:00,48.0,14.0,30.23,WNW,288,0.0,0.0,25,0.00,,,0.00,,2013-01-23 02:53:00,
2013-01-22 20:03:00,48.0,14.0,30.23,WNW,288,0.0,0.0,25,0.00,,,0.00,,2013-01-23 03:03:00,
2013-01-22 20:13:00,48.0,14.0,30.23,WNW,288,0.0,0.0,25,0.00,,,0.00,,2013-01-23 03:13:00,
2013-01-22 20:23:00,47.0,13.0,30.24,WNW,288,0.0,1.0,25,0.00,,,0.00,,2013-01-23 03:23:00,
2013-01-22 20:33:00,46.0,14.0,30.24,WNW,288,0.0,0.0,27,0.00,,,0.00,,2013-01-23 03:33:00,
2013-01-22 20:43:00,46.0,14.0,30.24,WNW,288,0.0,0.0,27,0.00,,,0.00,,2013-01-23 03:43:00,
2013-01-22 20:53:00,45.0,14.0,30.25,WNW,288,0.0,0.0,28,0.00,,,0.00,,2013-01-23 03:53:00,
2013-01-22 21:03:00,43.0,13.0,30.25,WNW,288,0.0,0.0,29,0.00,,,0.00,,2013-01-23 04:03:00,
2013-01-22 21:12:00,43.0,13.0,30.25,WNW,288,0.0,0.0,29,0.00,,,0.00,,2013-01-23 04:12:00,
2013-01-22 21:22:00,43.0,13.0,30.25,WNW,288,0.0,0.0,29,0.00,,,0.00,,2013-01-23 04:22:00,
2013-01-22 21:33:00,41.0,13.0,30.27,WNW,288,0.0,0.0,32,0.00,,,0.00,,2013-01-23 04:33:00,
2013-01-22 21:43:00,41.0,13.0,30.27,WNW,288,0.0,0.0,32,0.00,,,0.00,,2013-01-23 04:43:00,
2013-01-22 21:53:00,41.0,13.0,30.27,WNW,288,0.0,0.0,31,0.00,,,0.00,,2013-01-23 04:53:00,
2013-01-22 22:03:00,41.0,13.0,30.27,WNW,288,1.0,3.0,31,0.00,,,0.00,,2013-01-23 05:03:00,
2013-01-22 22:12:00,41.0,13.0,30.27,WNW,288,1.0,3.0,31,0.00,,,0.00,,2013-01-23 05:12:00,
2013-01-22 22:22:00,41.0,12.0,30.28,WNW,294,0.0,3.0,30,0.00,,,0.00,,2013-01-23 05:22:00,
2013-01-22 22:33:00,41.0,13.0,30.28,WNW,295,0.0,1.0,31,0.00,,,0.00,,2013-01-23 05:33:00,
2013-01-22 22:43:00,41.0,13.0,30.28,WNW,295,0.0,1.0,31,0.00,,,0.00,,2013-01-23 05:43:00,
2013-01-22 22:52:00,41.0,12.0,30.28,WNW,298,1.0,3.0,30,0.00,,,0.00,,2013-01-23 05:52:00,
2013-01-22 23:02:00,42.0,12.0,30.28,WNW,301,0.0,1.0,29,0.00,,,0.00,,2013-01-23 06:02:00,
2013-01-22 23:12:00,42.0,12.0,30.28,WNW,301,0.0,1.0,29,0.00,,,0.00,,2013-01-23 06:12:00,
2013-01-22 23:22:00,40.0,12.0,30.28,WNW,301,0.0,0.0,31,0.00,,,0.00,,2013-01-23 06:22:00,
2013-01-22 23:32:00,38.0,11.0,30.29,WNW,301,0.0,0.0,33,0.00,,,0.00,,2013-01-23 06:32:00,
2013-01-22 23:42:00,38.0,11.0,30.29,WNW,301,0.0,0.0,33,0.00,,,0.00,,2013-01-23 06:42:00,
2013-01-22 23:52:00,39.0,12.0,30.29,WNW,301,0.0,1.0,32,0.00,,,0.00,,2013-01-23 06:52:00,